W2JV-2 Weather Reports


Display with metric or nautical units.
time (UTC)temp
F
wind
direction
speed
MPH
gust
MPH
rain 1hr
in
rain 24hr
in
rain mn
in
humidity
%
barometer
mb
20260902235004 68 172 0.0 3.0 0.00 0.27 0.27 88 1018.2
20260902234504 68 255 0.0 0.0 0.00 0.27 0.27 87 1018.4
20260902234004 68 255 0.0 0.0 0.00 0.27 0.27 87 1018.4
20260902233504 68 231 0.0 0.0 0.00 0.27 0.27 87 1018.4
20260902233003 68 231 0.0 0.0 0.00 0.27 0.27 87 1018.5
20260902232503 68 226 0.0 0.0 0.00 0.27 0.27 87 1018.5
20260902232004 68 223 0.0 0.0 0.00 0.27 0.27 87 1018.5
20260902231504 68 261 0.0 0.0 0.00 0.27 0.27 87 1018.5
20260902231004 68 172 0.0 2.0 0.00 0.27 0.27 87 1018.6
20260902230503 68 100 0.0 0.0 0.00 0.27 0.27 87 1018.7
20260902230003 68 100 0.0 0.0 0.00 0.27 0.27 87 1019.0
20260902225505 68 100 0.0 0.0 0.00 0.27 0.27 87 1019.2
20260902224503 68 100 0.0 1.0 0.00 0.27 0.27 87 1019.5
20260902224004 68 100 0.0 1.0 0.00 0.27 0.27 87 1019.5
20260902223503 68 100 0.0 0.0 0.00 0.27 0.27 87 1019.5
20260902223003 68 100 0.0 0.0 0.00 0.27 0.27 87 1019.6
20260902222503 68 100 0.0 1.0 0.00 0.27 0.27 87 1019.8
20260902221504 69 100 0.0 2.0 0.00 0.27 0.27 87 1019.6
20260902221003 69 182 0.0 2.0 0.00 0.27 0.27 87 1019.6
20260902220504 69 247 0.0 0.0 0.00 0.27 0.27 87 1019.6
20260902215003 69 247 0.0 0.0 0.00 0.27 0.27 86 1019.8
20260902214504 69 247 0.0 0.0 0.00 0.27 0.27 86 1019.8
20260902214004 69 247 0.0 0.0 0.00 0.27 0.27 86 1019.7
20260902213504 69 247 0.0 0.0 0.01 0.27 0.27 86 1019.8
20260902213003 69 247 0.0 0.0 0.02 0.27 0.27 86 1019.7
20260902212504 69 247 0.0 0.0 0.02 0.27 0.27 86 1019.5
20260902212004 69 247 0.0 1.0 0.03 0.27 0.27 86 1019.3
20260902211503 69 247 0.0 1.0 0.05 0.27 0.27 85 1019.2
20260902211003 69 202 0.0 3.0 0.07 0.27 0.27 85 1018.9
20260902210005 69 237 1.0 3.0 0.19 0.27 0.27 84 1018.9
20260902205504 69 242 1.0 3.0 0.21 0.27 0.27 84 1018.8
20260902205005 69 198 0.0 2.0 0.21 0.27 0.27 83 1018.9
20260902204505 69 225 0.0 0.0 0.21 0.27 0.27 83 1019.0
20260902204004 69 229 0.0 0.0 0.24 0.27 0.27 82 1019.0
20260902203505 69 229 0.0 0.0 0.26 0.26 0.26 82 1019.2
20260902203003 69 229 0.0 0.0 0.25 0.25 0.25 81 1019.3
20260902202004 69 271 0.0 0.0 0.24 0.24 0.24 81 1019.5
20260902201505 69 271 0.0 0.0 0.22 0.22 0.22 81 1019.7
20260902201003 69 271 0.0 0.0 0.20 0.20 0.20 80 1019.8
20260902200505 70 155 0.0 0.0 0.16 0.16 0.16 79 1019.6
20260902200004 70 237 0.0 0.0 0.08 0.08 0.08 79 1019.7
20260902195504 71 141 1.0 3.0 0.06 0.06 0.06 79 1019.6
20260902195003 71 170 0.0 1.0 0.06 0.06 0.06 78 1019.6
20260902194503 72 172 0.0 0.0 0.06 0.06 0.06 77 1019.9
20260902194003 72 172 0.0 0.0 0.03 0.03 0.03 77 1019.8
20260902193503 72 172 0.0 0.0 0.00 0.00 0.00 76 1020.2
20260902193004 73 172 0.0 0.0 0.00 0.00 0.00 75 1020.2
20260902192503 73 172 0.0 1.0 0.00 0.00 0.00 75 1020.1
20260902192004 73 172 0.0 1.0 0.00 0.00 0.00 75 1019.7
20260902191504 73 172 0.0 3.0 0.00 0.00 0.00 74 1019.5
20260902191005 74 269 0.0 2.0 0.00 0.00 0.00 75 1019.4
20260902190504 74 188 0.0 2.0 0.00 0.00 0.00 75 1019.4
20260902190004 74 240 0.0 1.0 0.00 0.00 0.00 73 1019.4
20260902185504 74 98 1.0 3.0 0.00 0.00 0.00 73 1019.5
20260902185004 74 84 1.0 3.0 0.00 0.00 0.00 71 1019.5
20260902184503 75 122 2.0 5.0 0.00 0.00 0.00 72 1019.5
20260902184004 75 96 1.0 3.0 0.00 0.00 0.00 71 1019.4
20260902183504 75 84 1.0 5.0 0.00 0.00 0.00 70 1019.4
20260902183004 75 189 2.0 8.0 0.00 0.00 0.00 69 1019.4
20260902182504 76 262 0.0 6.0 0.00 0.00 0.00 73 1019.4
20260902182004 75 209 2.0 7.0 0.00 0.00 0.00 73 1019.3
20260902181504 75 120 2.0 6.0 0.00 0.01 0.00 74 1019.5
20260902181005 75 27 1.0 3.0 0.00 0.01 0.00 79 1019.5
20260902180503 75 187 1.0 3.0 0.00 0.01 0.00 80 1019.6
20260902180006 75 303 0.0 1.0 0.00 0.01 0.00 81 1019.9
20260902175504 74 213 1.0 2.0 0.00 0.01 0.00 80 1020.0
20260902175003 74 284 1.0 3.0 0.00 0.01 0.00 80 1020.0
20260902174503 74 334 0.0 2.0 0.00 0.01 0.00 82 1020.0
20260902174005 74 45 1.0 3.0 0.00 0.01 0.00 82 1019.9
20260902173504 74 295 0.0 3.0 0.00 0.01 0.00 82 1020.1
20260902172503 74 201 0.0 0.0 0.00 0.01 0.00 82 1020.0
20260902172004 74 340 0.0 0.0 0.00 0.01 0.00 82 1020.0
20260902171504 74 357 0.0 2.0 0.00 0.01 0.00 82 1020.1
20260902171004 74 274 0.0 2.0 0.00 0.01 0.00 82 1020.0
20260902170503 73 293 0.0 3.0 0.00 0.01 0.00 82 1019.8
20260902170004 74 334 1.0 2.0 0.00 0.01 0.00 82 1019.8
20260902165503 73 253 0.0 2.0 0.00 0.01 0.00 82 1019.8
20260902165004 73 284 0.0 1.0 0.00 0.01 0.00 82 1019.9
20260902164505 73 317 1.0 3.0 0.00 0.01 0.00 82 1019.9
20260902164004 73 315 0.0 3.0 0.00 0.02 0.00 82 1019.9
20260902163503 73 310 1.0 3.0 0.00 0.02 0.00 82 1019.9
20260902163003 73 12 1.0 2.0 0.00 0.02 0.00 82 1020.0
20260902162504 73 300 0.0 3.0 0.00 0.02 0.00 82 1020.0
20260902162002 73 333 1.0 3.0 0.00 0.02 0.00 81 1020.0
20260902161502 73 6 1.0 3.0 0.00 0.03 0.00 83 1020.1
20260902160002 73 82 0.0 0.0 0.00 0.04 0.00 82 1020.1
20260902155002 73 321 0.0 3.0 0.00 0.06 0.00 82 1020.2
20260902154503 73 285 0.0 1.0 0.00 0.06 0.00 82 1020.4
20260902153503 73 276 1.0 3.0 0.00 0.06 0.00 83 1020.3
20260902153004 72 87 2.0 3.0 0.00 0.07 0.00 83 1020.4
20260902152503 72 190 1.0 3.0 0.00 0.07 0.00 82 1020.4
20260902152003 72 115 0.0 0.0 0.00 0.07 0.00 82 1020.3
20260902151503 72 290 0.0 3.0 0.00 0.07 0.00 83 1020.5
20260902151003 72 9 1.0 3.0 0.00 0.07 0.00 83 1020.4
20260902150502 71 292 1.0 3.0 0.00 0.07 0.00 83 1020.5
20260902145502 71 40 2.0 3.0 0.00 0.08 0.00 83 1020.4
20260902145002 71 288 1.0 5.0 0.00 0.12 0.00 84 1020.4
20260902144502 71 13 1.0 5.0 0.00 0.17 0.00 84 1020.4
20260902144002 71 18 1.0 5.0 0.00 0.17 0.00 84 1020.4
20260902143502 71 193 0.0 1.0 0.00 0.17 0.00 84 1020.4
20260902143003 71 164 1.0 3.0 0.00 0.17 0.00 84 1020.4
20260902142502 70 301 0.0 3.0 0.00 0.17 0.00 85 1020.5
20260902142004 70 212 1.0 3.0 0.00 0.17 0.00 84 1020.4
20260902141503 70 9 1.0 3.0 0.00 0.18 0.00 84 1020.4
20260902141004 69 101 0.0 3.0 0.00 0.18 0.00 85 1020.4
20260902140502 69 224 1.0 3.0 0.00 0.18 0.00 85 1020.2
20260902140002 69 336 0.0 3.0 0.00 0.18 0.00 85 1020.3
20260902135502 69 342 1.0 3.0 0.00 0.18 0.00 85 1020.3
20260902135002 68 1 0.0 3.0 0.00 0.18 0.00 86 1020.2
20260902134502 68 338 1.0 3.0 0.00 0.18 0.00 86 1020.1
20260902134003 68 251 0.0 3.0 0.00 0.18 0.00 86 1019.9
20260902133502 68 256 1.0 2.0 0.00 0.18 0.00 86 1019.9
20260902133002 68 41 0.0 3.0 0.00 0.18 0.00 87 1020.0
20260902132502 68 308 0.0 0.0 0.00 0.18 0.00 87 1019.9
20260902130503 67 193 1.0 3.0 0.00 0.18 0.00 87 1020.0
20260902130002 67 228 1.0 2.0 0.00 0.18 0.00 87 1020.0
20260902125502 67 313 0.0 0.0 0.00 0.18 0.00 87 1020.0
20260902125002 67 313 0.0 2.0 0.00 0.18 0.00 87 1019.9
20260902124002 66 349 1.0 3.0 0.00 0.18 0.00 87 1019.8
20260902123502 66 295 1.0 3.0 0.00 0.18 0.00 87 1019.8
20260902123002 66 249 0.0 3.0 0.00 0.18 0.00 87 1019.8
20260902122502 66 268 0.0 2.0 0.00 0.18 0.00 87 1019.8
20260902122003 66 295 1.0 3.0 0.00 0.18 0.00 87 1019.7
20260902121502 66 263 0.0 3.0 0.00 0.18 0.00 88 1019.7
20260902121002 66 65 0.0 2.0 0.00 0.18 0.00 88 1019.7
20260902120503 66 289 0.0 2.0 0.00 0.18 0.00 88 1019.7
20260902120003 66 184 1.0 3.0 0.00 0.18 0.00 88 1019.8
20260902115502 66 249 1.0 3.0 0.00 0.18 0.00 88 1019.8
20260902115002 66 249 0.0 0.0 0.00 0.18 0.00 88 1019.8
20260902114503 66 81 0.0 2.0 0.00 0.18 0.00 88 1019.8
20260902114003 66 233 0.0 1.0 0.00 0.18 0.00 88 1020.0
20260902113502 65 236 0.0 1.0 0.00 0.18 0.00 88 1020.0
20260902113002 65 163 0.0 1.0 0.00 0.18 0.00 88 1020.0
20260902112003 65 274 0.0 2.0 0.00 0.18 0.00 88 1019.9
20260902111003 65 105 0.0 3.0 0.00 0.18 0.00 88 1019.8
20260902110502 65 222 0.0 2.0 0.00 0.18 0.00 88 1019.7
20260902110003 65 221 0.0 3.0 0.00 0.18 0.00 88 1019.7
20260902105504 65 307 0.0 2.0 0.00 0.18 0.00 88 1019.6
20260902105002 65 245 0.0 1.0 0.00 0.18 0.00 88 1019.7
20260902104502 65 232 0.0 2.0 0.00 0.18 0.00 88 1019.7
20260902104003 65 229 1.0 3.0 0.00 0.18 0.00 88 1019.5
20260902103002 66 277 1.0 3.0 0.00 0.18 0.00 88 1019.4
20260902102502 66 69 1.0 3.0 0.00 0.18 0.00 88 1019.3
20260902102002 66 304 0.0 0.0 0.00 0.18 0.00 88 1019.3
20260902101502 66 304 0.0 0.0 0.00 0.18 0.00 88 1019.3
20260902100502 66 313 0.0 0.0 0.00 0.18 0.00 88 1019.4
20260902095502 66 313 0.0 2.0 0.00 0.18 0.00 88 1019.3
20260902094503 66 219 0.0 2.0 0.00 0.18 0.00 88 1019.2
20260902094003 66 219 0.0 1.0 0.00 0.18 0.00 88 1019.3
20260902093504 66 222 0.0 2.0 0.00 0.18 0.00 88 1019.3
20260902092502 66 276 0.0 1.0 0.00 0.18 0.00 88 1019.1
20260902092003 66 282 0.0 0.0 0.00 0.18 0.00 88 1019.0
20260902091503 66 283 0.0 0.0 0.00 0.18 0.00 88 1018.9
20260902091002 66 289 0.0 2.0 0.00 0.18 0.00 88 1018.8
20260902090503 66 238 0.0 0.0 0.00 0.18 0.00 88 1018.7
20260902090004 66 254 0.0 0.0 0.00 0.18 0.00 88 1018.7
20260902085502 66 250 0.0 5.0 0.00 0.18 0.00 88 1018.8
20260902084502 66 276 1.0 3.0 0.00 0.18 0.00 88 1018.8
20260902084002 66 198 1.0 3.0 0.00 0.18 0.00 88 1018.6
20260902083503 67 337 0.0 3.0 0.00 0.18 0.00 88 1018.6
20260902083003 67 86 1.0 3.0 0.00 0.18 0.00 88 1018.6
20260902082502 67 305 1.0 3.0 0.00 0.18 0.00 88 1018.5
20260902082002 67 92 1.0 5.0 0.00 0.18 0.00 88 1018.5
20260902081002 67 217 0.0 3.0 0.00 0.18 0.00 88 1018.5
20260902080002 67 348 1.0 3.0 0.00 0.19 0.00 88 1018.3
20260902075003 68 297 1.0 5.0 0.00 0.19 0.00 88 1018.2
20260902074502 68 24 1.0 3.0 0.00 0.19 0.00 88 1018.2
20260902074002 68 317 1.0 3.0 0.00 0.19 0.00 88 1018.1
20260902073502 68 290 1.0 5.0 0.00 0.19 0.00 88 1018.1
20260902073003 68 341 1.0 7.0 0.00 0.19 0.00 88 1018.1
20260902072502 68 338 0.0 2.0 0.00 0.19 0.00 88 1018.2
20260902072002 68 334 1.0 6.0 0.00 0.20 0.00 88 1018.2
20260902071503 68 103 1.0 3.0 0.00 0.21 0.00 88 1018.1
20260902071002 68 270 1.0 2.0 0.00 0.23 0.00 88 1018.1
20260902070504 68 330 0.0 2.0 0.00 0.24 0.00 88 1018.1
20260902070003 68 10 1.0 3.0 0.00 0.28 0.00 87 1018.1
20260902065502 68 286 0.0 0.0 0.00 0.33 0.00 87 1018.1
20260902064003 68 148 0.0 0.0 0.00 0.36 0.00 87 1018.2
20260902063502 68 131 0.0 1.0 0.00 0.37 0.00 87 1018.3
20260902063003 68 130 1.0 2.0 0.00 0.39 0.00 87 1018.2
20260902062502 67 278 0.0 1.0 0.00 0.40 0.00 87 1018.2
20260902062002 67 278 1.0 2.0 0.00 0.41 0.00 87 1018.2
20260902061002 67 74 0.0 1.0 0.00 0.52 0.00 87 1018.2
20260902060003 67 133 1.0 3.0 0.00 0.67 0.00 87 1018.0
20260902054502 67 37 0.0 2.0 0.00 0.80 0.00 87 1018.3
20260902054003 67 151 0.0 1.0 0.00 0.85 0.00 87 1018.3
20260902053502 67 239 0.0 2.0 0.00 0.91 0.00 87 1018.3
20260902053002 67 292 1.0 3.0 0.00 0.95 0.00 87 1018.3
20260902052002 67 235 0.0 1.0 0.00 1.01 0.00 87 1018.0
20260902051003 67 279 0.0 2.0 0.00 1.06 0.00 87 1018.0
20260902050502 67 260 0.0 1.0 0.00 1.08 0.00 87 1018.1
20260902050004 67 191 1.0 2.0 0.00 1.09 0.00 87 1018.1
20260902045503 67 242 0.0 3.0 0.00 1.11 0.00 87 1018.1
20260902045003 67 321 1.0 3.0 0.00 1.12 0.00 87 1018.1
20260902044502 67 321 0.0 2.0 0.00 1.12 0.00 87 1018.1
20260902044002 67 55 0.0 3.0 0.00 1.13 0.00 87 1018.1
20260902043502 67 287 1.0 2.0 0.00 1.13 0.00 87 1018.2
20260902043002 67 32 1.0 2.0 0.00 1.13 0.00 87 1018.2
20260902042502 67 284 0.0 2.0 0.00 1.13 0.00 87 1018.1
20260902042002 67 34 0.0 6.0 0.00 1.13 0.00 87 1017.9
20260902041502 67 74 1.0 3.0 0.00 1.13 0.00 87 1017.7
20260902041002 67 318 0.0 3.0 0.00 1.13 0.00 87 1017.7
20260902040004 67 236 0.0 3.0 0.00 1.13 0.00 87 1017.5
20260902035003 67 172 0.0 2.0 0.00 1.13 1.13 87 1017.5
20260902034003 67 97 1.0 2.0 0.00 1.13 1.13 87 1017.7
20260902033503 67 307 1.0 3.0 0.00 1.13 1.13 87 1017.5
20260902032503 67 320 0.0 2.0 0.00 1.13 1.13 87 1017.4
20260902032003 67 177 0.0 2.0 0.00 1.13 1.13 87 1017.4
20260902031502 67 190 1.0 3.0 0.00 1.13 1.13 87 1017.5
20260902031002 67 274 0.0 2.0 0.00 1.13 1.13 87 1017.6
20260902030502 67 112 1.0 3.0 0.00 1.13 1.13 87 1017.7
20260902030003 67 99 1.0 3.0 0.00 1.13 1.13 87 1017.6
20260902025003 67 226 1.0 3.0 0.00 1.13 1.13 87 1017.4
20260902024503 67 164 0.0 3.0 0.00 1.13 1.13 87 1017.3
20260902024002 67 292 2.0 3.0 0.00 1.13 1.13 87 1017.3
20260902023502 67 298 1.0 3.0 0.00 1.13 1.13 87 1017.2
20260902022002 68 307 0.0 0.0 0.00 1.13 1.13 87 1016.9
20260902021502 68 0 0.0 3.0 0.00 1.13 1.13 87 1016.9
20260902021002 68 25 1.0 2.0 0.00 1.13 1.13 87 1016.8
20260902020503 68 85 1.0 3.0 0.00 1.13 1.13 87 1016.9
20260902020003 68 306 1.0 3.0 0.00 1.13 1.13 87 1016.6
20260902015503 68 306 2.0 5.0 0.00 1.13 1.13 87 1016.6
20260902015003 68 84 1.0 5.0 0.00 1.13 1.13 87 1016.5
20260902014503 68 125 1.0 2.0 0.00 1.13 1.13 87 1016.3
20260902014003 68 13 1.0 3.0 0.00 1.13 1.13 87 1016.4
20260902013502 68 322 1.0 2.0 0.00 1.13 1.13 87 1016.3
20260902012503 69 257 1.0 3.0 0.00 1.13 1.13 87 1016.2
20260902012003 69 308 0.0 1.0 0.00 1.13 1.13 87 1015.9
20260902011004 69 157 1.0 3.0 0.00 1.13 1.13 87 1015.7
20260902010502 69 89 1.0 3.0 0.00 1.13 1.13 87 1015.7
20260902010002 69 295 0.0 2.0 0.00 1.13 1.13 87 1015.7
20260902005503 69 80 1.0 5.0 0.00 1.13 1.13 87 1015.7
20260902005003 69 4 2.0 5.0 0.00 1.13 1.13 87 1015.6
20260902004002 69 309 1.0 6.0 0.00 1.13 1.13 87 1015.4
20260902003502 70 345 1.0 8.0 0.00 1.13 1.13 87 1015.4
20260902003003 70 15 1.0 5.0 0.00 1.13 1.13 87 1015.4
20260902002502 70 347 2.0 7.0 0.00 1.13 1.13 87 1015.4
20260902002003 70 338 1.0 5.0 0.00 1.13 1.13 87 1015.2
20260902001503 71 324 1.0 7.0 0.00 1.13 1.13 87 1015.1
20260902001003 71 348 0.0 3.0 0.00 1.13 1.13 87 1015.3
20260902000503 71 344 1.0 3.0 0.00 1.13 1.13 87 1015.4
20260902000003 72 0 1.0 6.0 0.00 1.13 1.13 87 1015.3